This is the latest recevied weather packets stored in our database for station/object DK8HC-WX. If no packets are shown the sender has not sent any weather packets the latest 10 day(s).
| Time | Temp. | Humidity | Pressure | Rain* | Wind** | Luminosity | Snow |
|---|---|---|---|---|---|---|---|
| 1777842706 | 17.78° C | 100% | 1012.6 hPa | - | - | - | - |
| 1777842106 | 17.78° C | 100% | 1012.6 hPa | - | - | - | - |
| 1777841506 | 17.78° C | 100% | 1012.4 hPa | - | - | - | - |
| 1777840906 | 17.78° C | 100% | 1012.4 hPa | - | - | - | - |
| 1777840306 | 17.78° C | 100% | 1012.4 hPa | - | - | - | - |
| 1777839706 | 18.33° C | 100% | 1012.5 hPa | - | - | - | - |
| 1777839106 | 18.33° C | 100% | 1012.6 hPa | - | - | - | - |
| 1777838506 | 18.33° C | 100% | 1012.7 hPa | - | - | - | - |
| 1777837907 | 18.33° C | 99% | 1012.5 hPa | - | - | - | - |
| 1777837307 | 18.89° C | 94% | 1012.6 hPa | - | - | - | - |
| 1777836706 | 18.89° C | 92% | 1012.5 hPa | - | - | - | - |
| 1777836106 | 18.89° C | 89% | 1012.3 hPa | - | - | - | - |
| 1777835506 | 19.44° C | 84% | 1012.2 hPa | - | - | - | - |
| 1777834906 | 19.44° C | 79% | 1012.1 hPa | - | - | - | - |
| 1777834306 | 19.44° C | 74% | 1012.1 hPa | - | - | - | - |
| 1777833706 | 20° C | 69% | 1012 hPa | - | - | - | - |
| 1777833106 | 20° C | 66% | 1012 hPa | - | - | - | - |
| 1777832506 | 20.56° C | 64% | 1011.9 hPa | - | - | - | - |
| 1777831906 | 20.56° C | 59% | 1011.9 hPa | - | - | - | - |
| 1777831306 | 21.11° C | 55% | 1011.9 hPa | - | - | - | - |
| 1777830706 | 22.22° C | 50% | 1011.7 hPa | - | - | - | - |
| 1777830106 | 22.22° C | 49% | 1011.6 hPa | - | - | - | - |
| 1777829506 | 22.78° C | 49% | 1011.6 hPa | - | - | - | - |
| 1777828906 | 22.22° C | 51% | 1011.7 hPa | - | - | - | - |
| 1777828306 | 22.22° C | 50% | 1011.6 hPa | - | - | - | - |
* Rain since midnight (hover to see other rain measurements)
** Current wind speed in m/s (hover to see current wind gust speed)